CAPE
0 0 12 0 0 1 21 0 0 2 1 2 0 15 22 40 417 218 87 47 71 61 14 0 0 20 398 672 689 667 636 511 416 299 335 505 457 547 823 917 850 688 538 738
0 2 19 1 36 22 6 0 0 29 52 42 5 105 241 216 236 95 46 70 125 8 13 0 0 0 98 201 81 0 0 671 457 451 503 331 336 342 283 323 610 907 948 910
0 0 0 1 43 49 6 8 5 0 2 26 15 169 311 172 106 39 27 17 90 54 0 0 0 28 145 280 202 8 231 872 861 602 655 762 980 936 766 609 750 854 644 474
0 0 0 0 44 3 115 26 6 0 1 23 28 370 273 153 49 52 1 11 30 42 45 49 124 135 150 178 526 684 271 519 640 545 724 836 890 609 545 435 427 378 281 450
0 0 0 0 92 73 100 192 304 168 112 46 211 190 118 163 90 88 21 8 0 17 72 121 151 76 144 48 183 204 266 266 304 504 375 454 445 446 411 312 277 124 8 8
0 0 0 138 77 55 14 105 261 232 102 114 106 103 266 141 68 49 50 43 40 2 17 22 58 68 163 25 46 39 60 18 51 108 218 228 210 166 97 7 0 0 0 0
0 0 0 90 60 3 0 199 137 181 349 116 80 0 139 168 67 17 19 135 66 1 4 16 74 126 168 130 90 165 218 77 113 130 89 93 56 20 0 0 0 0 0 2
9 15 25 54 47 85 106 27 275 291 187 218 101 40 92 19 58 143 111 88 88 31 18 7 4 75 87 46 26 64 63 41 65 51 56 11 0 0 0 0 0 1 1 2
1 0 24 91 35 0 0 1 115 347 345 136 143 112 135 98 223 294 172 184 118 54 31 32 0 1 51 12 27 8 19 3 4 9 4 0 0 0 0 0 0 1 1 0
6 13 13 1 0 0 0 0 1 267 337 77 11 0 4 331 259 168 130 142 109 63 41 18 8 0 2 1 1 0 0 0 0 0 0 0 0 0 0 0 0 0 0 0
0 4 20 0 0 0 5 0 0 35 474 170 29 266 443 323 286 187 113 70 96 39 49 11 0 0 0 0 0 0 0 0 0 0 0 0 0 0 0 0 0 0 0 0
0 0 0 0 0 0 0 9 53 37 392 503 337 391 301 271 171 177 154 97 83 34 1 3 0 0 0 0 0 0 0 0 0 0 0 0 0 0 0 0 0 0 0 0
0 0 0 0 0 0 0 0 0 0 0 135 331 455 374 243 163 152 92 86 69 6 0 0 0 0 0 0 0 0 0 0 0 0 0 0 0 0 0 0 0 0 0 0
0 0 0 0 2 0 0 0 0 0 0 415 495 427 312 236 172 127 88 75 21 0 0 0 0 0 0 0 0 0 0 0 0 0 0 0 0 0 0 0 0 0 0 0
7 21 0 0 0 0 16 6 0 29 4 540 489 418 343 279 219 210 181 84 1 0 0 0 0 0 0 0 0 0 0 0 0 0 0 0 0 0 0 0 0 0 0 0
39 62 3 0 0 0 0 0 0 43 83 495 472 400 291 305 360 156 52 3 0 0 0 0 0 0 0 0 0 0 0 0 0 0 0 0 0 0 0 0 0 0 0 0
144 135 0 0 1 0 0 0 30 25 334 330 492 493 440 412 104 14 0 0 0 0 0 0 0 0 0 0 0 0 0 0 0 0 0 0 0 0 0 0 0 0 0 0
262 236 31 10 0 0 0 0 0 89 261 243 183 127 204 136 49 41 132 184 193 86 0 0 0 0 0 0 0 0 0 0 0 0 0 0 0 0 0 0 0 0 0 0
107 86 18 0 0 1 0 0 2 3 103 118 159 166 231 100 86 287 320 21 1 0 0 0 0 0 0 0 0 0 1 0 0 0 0 0 0 0 0 0 0 0 0 0
125 16 23 7 0 0 0 0 10 28 0 1 60 92 94 142 220 194 128 63 25 27 10 19 0 0 0 0 0 0 0 0 1 0 0 0 0 0 0 0 0 3 0 1
112 33 58 30 0 0 61 11 119 32 9 8 27 12 8 37 139 62 24 32 10 36 58 32 12 1 2 2 0 0 0 0 0 2 0 1 0 0 0 0 3 1 6 1
68 50 0 56 117 0 203 336 42 37 51 38 44 15 0 7 31 146 25 5 4 32 50 21 3 7 0 4 9 13 20 28 24 12 3 3 4 1 1 3 4 3 4 3
29 3 0 15 155 431 388 86 4 0 1 4 13 28 28 26 15 1 24 32 22 73 48 37 60 54 0 0 0 0 0 0 0 0 0 0 2 0 0 7 9 7 11 0
0 0 0 112 198 536 172 66 68 3 0 10 0 0 15 60 134 79 37 29 64 22 10 7 17 0 0 0 0 0 0 0 0 0 0 0 4 5 9 8 13 17 0 0
307 2 0 11 235 91 301 154 100 78 32 19 21 38 177 204 168 252 270 129 78 26 6 4 0 0 0 0 0 0 0 0 0 0 0 0 0 0 0 3 9 0 0 0
251 163 1 3 119 213 259 333 213 283 186 151 228 193 184 238 322 260 282 74 73 41 3 0 0 0 0 0 0 0 0 0 0 0 0 0 0 0 0 0 0 0 0 0
422 227 142 23 0 111 78 67 48 18 52 213 305 458 493 478 469 410 258 21 0 0 0 0 0 0 0 0 0 0 0 0 0 0 0 0 0 0 0 0 0 0 0 0
CIN
-0 -1 -16 -0 -0 -22 -63 -3 -0 -9 -47 -83 -0 -180 -115 -30 -4 -56 -89 -147 -172 -182 -256 -0 -0 -189 -68 -65 -59 -61 -62 -33 -51 -48 -52 -25 -12 -11 -12 -9 -20 -29 -39 -33
-0 -3 -11 -4 -4 -24 -32 -1 -0 -87 -67 -140 -182 -182 -131 -84 -114 -146 -113 -129 -146 -196 -236 -0 -0 -0 -55 -97 -96 -0 -0 -26 -56 -39 -31 -44 -38 -32 -32 -37 -25 -21 -22 -18
-0 -0 -0 -23 -0 -6 -30 -41 -44 -0 -48 -130 -116 -113 -130 -152 -186 -209 -205 -170 -157 -161 -11 -0 -0 -152 -3 -57 -126 -29 -13 -25 -22 -32 -15 -31 -12 -11 -18 -20 -16 -13 -11 -12
-0 -0 -0 -0 -8 -10 -29 -28 -30 -0 -46 -95 -126 -104 -138 -179 -255 -209 -17 -217 -173 -209 -229 -178 -28 -2 -45 -61 -45 -17 -31 -20 -54 -50 -30 -22 -16 -22 -19 -20 -23 -31 -35 -20
-0 -0 -0 -0 -19 -17 -42 -90 -50 -69 -106 -96 -141 -161 -205 -167 -142 -172 -189 -167 -0 -195 -208 -232 -196 -183 -108 -106 -55 -50 -57 -60 -65 -50 -55 -55 -46 -40 -34 -37 -37 -89 -25 -22
-0 -0 -0 -6 -17 -30 -33 -40 -54 -70 -116 -132 -129 -81 -79 -129 -131 -148 -151 -185 -154 -1 -210 -311 -318 -190 -39 -96 -46 -44 -41 -96 -123 -90 -63 -65 -78 -94 -112 -165 -0 -0 -0 -0
-0 -0 -0 -31 -18 -9 -0 -22 -91 -108 -82 -151 -122 -0 -133 -102 -98 -95 -99 -107 -190 -64 -286 -304 -269 -200 -92 -65 -50 -5 -9 -67 -92 -62 -81 -77 -112 -161 -0 -0 -0 -0 -0 -0
-7 -3 -3 -50 -36 -18 -55 -77 -57 -113 -135 -124 -154 -140 -186 -192 -190 -142 -83 -131 -182 -222 -284 -342 -133 -221 -179 -162 -190 -122 -139 -132 -135 -126 -114 -137 -0 -0 -0 -0 -0 -0 -0 -0
-2 -0 -39 -27 -40 -0 -0 -52 -44 -70 -135 -124 -124 -153 -172 -173 -138 -128 -118 -118 -189 -257 -232 -312 -0 -24 -245 -367 -341 -281 -240 -118 -308 -316 -274 -0 -12 -0 -0 -0 -0 -0 -0 -0
-7 -20 -24 -4 -0 -0 -0 -0 -16 -42 -94 -111 -80 -0 -30 -85 -53 -100 -129 -167 -168 -264 -286 -280 -367 -0 -0 -0 -256 -0 -0 -0 -0 -0 -0 -0 -0 -0 -0 -0 -0 -0 -0 -0
-0 -1 -8 -0 -0 -0 -21 -0 -0 -124 -43 -74 -89 -91 -55 -50 -52 -70 -91 -142 -148 -208 -251 -318 -0 -0 -0 -0 -0 -0 -0 -0 -0 -0 -0 -0 -0 -0 -0 -0 -0 -0 -0 -0
-0 -0 -0 -0 -0 -13 -0 -21 -69 -82 -89 -21 -22 -46 -58 -86 -95 -99 -90 -113 -127 -189 -2 -92 -151 -0 -0 -0 -0 -0 -0 -0 -0 -0 -0 -0 -0 -0 -0 -0 -0 -0 -0 -0
-0 -0 -0 -0 -0 -0 -0 -0 -0 -0 -0 -14 -39 -43 -76 -104 -112 -122 -152 -125 -147 -228 -0 -0 -0 -0 -0 -0 -0 -0 -0 -0 -0 -0 -0 -0 -0 -0 -0 -0 -0 -0 -0 -0
-0 -0 -0 -0 -23 -0 -0 -0 -0 -0 -0 -5 -53 -79 -101 -92 -98 -116 -150 -140 -140 -0 -0 -0 -0 -0 -0 -0 -0 -0 -0 -0 -0 -0 -0 -0 -0 -0 -0 -0 -0 -0 -0 -0
-96 -30 -0 -0 -0 -0 -261 -106 -0 -109 -109 -15 -40 -53 -74 -109 -110 -92 -114 -155 -66 -0 -0 -0 -0 -0 -0 -0 -0 -0 -0 -0 -0 -0 -0 -0 -0 -0 -0 -0 -0 -0 -0 -0
-74 -53 -34 -0 -0 -0 -0 -0 -0 -95 -95 -17 -17 -43 -98 -108 -71 -143 -199 -53 -0 -0 -0 -0 -0 -0 -0 -0 -0 -0 -0 -0 -0 -0 -0 -0 -0 -0 -0 -0 -0 -0 -0 -0
-57 -27 -0 -0 -59 -0 -0 -0 -85 -146 -18 -25 -30 -66 -65 -66 -215 -294 -0 -0 -3 -0 -5 -0 -0 -0 -0 -0 -0 -0 -0 -0 -0 -0 -0 -0 -0 -0 -0 -0 -0 -0 -0 -0
-32 -14 -62 -105 -0 -0 -0 -0 -0 -101 -16 -57 -94 -137 -121 -145 -183 -165 -86 -53 -41 -63 -0 -0 -0 -0 -0 -0 -0 -0 -0 -0 -0 -0 -0 -0 -0 -0 -0 -0 -0 -0 -0 -0
-72 -39 -124 -11 -0 -34 -0 -0 -15 -129 -55 -66 -97 -127 -78 -97 -83 -16 -12 -125 -44 -0 -0 -0 -0 -0 -0 -0 -0 -0 -8 -0 -0 -0 -0 -0 -0 -0 -0 -0 -0 -0 -0 -0
-89 -123 -164 -200 -0 -0 -0 -0 -170 -102 -0 -16 -116 -105 -110 -63 -21 -21 -34 -84 -115 -104 -110 -117 -0 -0 -0 -0 -0 -0 -0 -0 -5 -8 -0 -0 -0 -0 -0 -0 -3 -29 -7 -26
-97 -129 -111 -153 -0 -0 -87 -17 -75 -101 -164 -148 -152 -188 -225 -157 -62 -87 -123 -124 -159 -114 -94 -113 -22 -9 -26 -24 -1 -0 -0 -0 -3 -30 -4 -51 -4 -7 -4 -10 -39 -37 -43 -26
-128 -130 -0 -121 -99 -0 -62 -29 -99 -130 -145 -171 -165 -204 -91 -200 -138 -51 -128 -170 -177 -92 -82 -125 -12 -22 -0 -13 -19 -22 -26 -29 -24 -30 -31 -37 -39 -19 -29 -41 -41 -39 -48 -52
-155 -45 -0 -178 -86 -31 -34 -118 -135 -0 -44 -60 -189 -176 -172 -167 -182 -39 -156 -148 -150 -129 -155 -163 -140 -112 -0 -0 -0 -0 -0 -0 -0 -13 -10 -18 -33 -17 -0 -51 -60 -41 -50 -10
-0 -0 -0 -94 -42 -13 -62 -114 -133 -184 -0 -159 -0 -101 -189 -130 -95 -141 -183 -158 -160 -201 -197 -60 -35 -12 -0 -0 -0 -0 -0 -0 -0 -0 -0 -0 -19 -28 -32 -44 -34 -47 -0 -0
-5 -19 -0 -115 -36 -72 -25 -70 -102 -141 -185 -184 -162 -141 -72 -60 -78 -51 -58 -86 -111 -140 -50 -64 -24 -0 -0 -0 -0 -0 -0 -0 -0 -0 -0 -0 -0 -0 -0 -40 -30 -0 -0 -0
-9 -17 -17 -53 -27 -12 -12 -12 -28 -33 -77 -94 -76 -67 -53 -40 -29 -23 -24 -82 -85 -114 -76 -0 -0 -0 -0 -0 -0 -0 -0 -0 -0 -0 -0 -0 -0 -0 -0 -0 -0 -0 -0 -0
-20 -21 -21 -36 -4 -32 -43 -57 -64 -81 -66 -27 -33 -26 -31 -29 -25 -17 -17 -91 -0 -0 -10 -0 -0 -0 -0 -0 -0 -0 -0 -0 -0 -0 -0 -0 -0 -0 -0 -0 -0 -0 -0 -0
Wind_Speed
12 25 13 15 16 7 18 14 19 24 26 23 15 13 7 25 19 16 16 18 23 23 24 24 25 24 28 16 13 15 24 11 6 6 5 2 2 2 3 4 3 4 6 9
13 23 26 29 21 10 10 20 24 20 22 18 22 17 14 14 15 18 17 16 16 14 20 31 29 29 35 19 16 13 37 31 11 7 5 3 3 3 4 7 8 11 13 16
16 26 27 21 19 16 17 14 20 22 20 15 20 18 15 15 16 15 17 17 14 10 12 19 28 31 35 21 19 18 21 20 19 8 9 9 9 9 9 13 18 21 23 26
19 28 26 19 19 19 16 13 18 19 13 8 18 19 19 16 17 16 16 17 17 16 14 8 14 21 28 25 17 16 15 3 12 14 14 15 16 17 19 20 22 25 26 27
9 15 28 28 17 13 12 18 14 14 13 15 16 18 21 18 17 14 14 16 20 18 20 19 18 20 22 22 22 22 20 17 17 16 18 19 19 19 21 22 23 23 24 25
13 17 19 16 15 16 18 19 14 13 13 15 21 27 22 16 16 16 14 15 17 19 16 18 18 17 17 17 17 18 16 17 17 19 17 19 17 16 17 17 19 21 22 23
9 9 14 19 19 19 22 20 14 14 14 15 20 21 15 14 15 15 14 14 17 18 18 17 13 11 14 13 11 10 8 10 12 13 14 16 15 15 16 16 17 18 19 21
12 13 14 19 20 19 15 16 14 15 14 15 15 12 10 11 12 11 13 12 12 14 17 17 16 11 11 12 12 9 8 9 10 11 9 10 10 12 14 13 14 14 15 17
16 14 15 14 15 14 14 17 17 13 11 11 11 11 10 10 8 4 7 8 12 12 13 14 14 13 10 11 10 10 10 11 11 11 11 12 11 10 10 11 12 13 15 16
15 19 18 16 19 11 10 15 17 12 8 8 10 8 8 6 6 6 9 11 11 12 12 13 13 12 11 10 10 9 10 10 10 10 12 12 13 12 12 12 13 13 13 14
21 23 20 20 17 16 15 15 17 23 12 13 7 8 4 3 6 7 8 12 10 11 12 11 13 11 10 10 8 9 9 9 9 10 10 11 12 13 13 14 14 13 14 13
21 22 20 21 13 14 14 15 16 18 18 8 8 4 2 2 4 5 7 8 8 12 12 12 11 12 11 10 9 9 9 10 10 9 9 10 11 12 14 14 14 14 14 13
26 27 24 18 15 13 16 18 21 27 26 18 6 4 2 3 4 3 9 11 11 11 12 12 10 12 12 11 9 9 8 9 10 10 8 9 9 10 10 13 13 14 13 13
30 29 21 14 15 16 20 21 22 23 26 16 6 5 5 5 5 6 8 9 10 9 11 11 10 10 11 9 8 7 8 8 9 9 9 9 8 8 10 10 11 12 14 14
26 24 18 13 14 14 18 18 21 17 20 8 7 6 6 6 5 9 9 7 7 8 9 9 9 10 9 9 7 9 12 9 8 9 9 8 9 9 10 11 12 12 13 14
23 26 11 9 9 10 11 5 17 11 22 10 8 6 7 5 5 5 7 6 5 6 7 8 9 9 9 9 9 10 8 10 10 9 9 10 11 9 9 10 11 10 12 13
14 9 10 6 6 15 15 8 15 16 11 8 7 6 6 5 5 5 8 7 7 6 7 7 9 9 7 8 11 9 9 9 12 12 13 12 12 12 12 9 8 9 11 11
3 2 9 8 10 11 16 23 16 22 15 9 8 6 5 3 3 2 3 6 4 3 5 6 5 6 5 7 10 9 8 8 9 11 11 12 13 12 12 11 8 9 11 14
4 6 9 11 12 13 14 32 27 24 10 8 8 8 7 4 4 1 4 2 4 7 9 3 4 6 10 14 14 12 12 10 13 9 9 10 13 13 15 14 12 9 10 12
9 9 11 13 15 15 19 24 27 22 13 11 10 12 14 8 4 5 2 4 2 4 4 6 6 5 7 11 13 15 18 18 14 5 6 9 12 12 12 15 12 11 9 13
7 8 10 14 15 17 21 19 20 16 15 14 14 15 16 20 19 16 18 18 18 20 21 13 11 10 10 7 7 6 15 20 20 6 3 6 9 9 14 13 10 11 14 15
4 6 8 11 14 18 20 18 18 17 17 16 15 16 17 17 16 14 16 17 24 24 17 14 15 12 8 11 7 5 13 16 18 10 6 9 10 10 11 10 9 10 12 15
7 4 4 8 11 17 17 16 17 18 19 19 19 19 19 19 21 21 23 24 24 18 14 12 13 12 6 6 6 6 13 13 14 13 12 10 9 10 12 11 10 10 9 12
10 6 5 3 5 9 13 12 14 15 16 16 16 18 19 20 21 23 21 20 19 14 12 9 8 10 8 5 6 7 11 13 16 17 17 17 13 9 10 8 8 7 8 10
18 8 7 6 1 2 7 9 7 9 10 11 12 13 12 15 12 10 12 11 11 11 8 8 8 8 5 3 3 4 7 10 14 15 15 17 16 15 14 8 8 5 6 8
20 14 11 9 9 5 2 1 2 1 6 6 6 6 6 6 5 2 2 9 1 9 6 5 5 5 3 2 1 1 5 8 12 15 15 14 13 13 9 7 5 6 7 8
21 21 17 13 11 11 5 4 4 4 4 5 6 5 5 4 3 3 3 8 6 3 4 5 5 5 3 3 3 3 5 6 10 13 13 12 11 6 6 7 7 7 8 9
Wind_Direction
334 324 349 331 329 339 303 311 279 276 271 275 313 359 25 252 296 305 299 273 256 251 249 264 273 273 264 233 235 253 254 246 216 177 163 172 276 305 327 344 7 358 350 344
336 312 312 296 300 318 321 285 282 297 287 299 299 332 338 352 320 297 299 294 278 273 255 261 269 275 266 245 235 249 240 247 228 224 204 228 278 286 301 311 316 318 320 319
331 305 305 307 319 322 314 307 286 294 290 300 293 312 343 353 356 330 308 296 291 320 291 256 276 282 259 260 256 250 248 248 249 226 256 275 289 299 302 305 303 303 303 303
322 296 287 317 320 320 335 297 297 289 305 2 309 318 335 341 345 331 315 295 282 288 303 305 296 288 274 271 269 268 260 286 277 278 281 286 288 292 298 301 303 302 303 306
339 319 287 292 336 331 330 324 320 301 303 319 317 320 321 327 332 350 336 307 283 284 276 278 281 288 290 284 270 273 277 282 292 293 288 288 292 297 298 301 305 309 310 312
330 315 308 324 328 329 320 313 336 329 327 326 312 301 313 334 327 327 342 324 303 289 301 290 292 296 305 311 283 282 290 293 297 290 297 291 298 303 308 314 317 315 316 318
339 336 313 316 330 325 309 305 337 338 331 328 315 311 325 339 331 324 325 313 306 304 304 309 332 323 310 326 308 332 312 318 326 316 305 301 307 316 317 327 328 328 325 323
333 321 309 319 329 322 327 338 341 332 331 330 334 339 340 338 337 321 309 320 326 322 317 318 328 344 320 309 302 321 319 319 341 339 345 333 338 330 329 337 352 358 354 348
318 326 329 335 338 339 338 328 331 333 332 334 334 330 330 334 318 344 334 332 316 321 321 325 327 331 331 317 331 335 329 313 326 344 339 354 352 347 346 345 353 0 1 1
323 310 315 324 322 342 340 330 330 332 308 306 309 321 320 316 320 298 307 311 313 315 315 314 315 323 335 344 346 360 352 357 333 358 351 352 349 343 336 342 350 357 1 4
311 312 316 321 333 340 342 343 333 322 306 287 275 304 330 333 313 306 305 294 309 309 305 312 312 314 325 338 354 349 347 343 0 351 353 349 346 339 335 328 333 342 345 352
310 308 320 325 344 347 343 330 322 321 328 293 324 311 315 31 325 320 311 306 303 292 297 297 301 310 316 320 328 333 337 329 333 355 352 352 349 348 343 342 342 344 345 350
294 306 319 333 339 345 335 325 314 307 314 251 183 54 17 14 351 333 295 290 288 285 288 289 299 302 303 313 323 325 342 328 320 324 355 356 356 359 0 353 359 359 2 9
291 303 322 337 341 344 337 328 324 325 310 263 358 4 345 337 335 306 293 293 288 290 285 287 297 304 310 313 330 327 341 349 344 333 335 340 349 6 6 2 357 353 356 358
301 318 333 352 1 355 345 337 336 310 246 65 18 13 14 350 313 295 294 300 304 294 292 292 294 300 316 312 334 314 309 327 333 328 335 347 344 349 352 354 352 352 354 354
320 311 353 12 28 4 1 34 315 142 191 90 91 55 17 358 324 315 299 298 304 302 298 297 298 309 309 316 315 312 321 323 328 325 336 335 333 330 334 347 356 0 359 356
342 346 11 25 21 354 359 96 125 258 99 63 47 44 39 5 344 320 284 287 299 325 308 300 298 301 324 312 310 340 325 321 314 322 322 331 337 341 332 341 360 14 12 13
358 80 15 82 58 30 2 225 253 226 123 84 76 53 16 11 10 78 294 295 318 351 337 317 333 331 338 331 322 329 354 353 335 337 341 333 339 342 333 347 10 359 352 352
87 104 57 81 80 88 208 196 181 198 104 86 81 97 97 90 90 311 291 317 310 287 284 45 14 331 298 288 293 304 317 316 312 343 356 347 329 322 324 327 333 344 351 352
118 105 96 99 111 116 129 152 181 141 116 101 97 112 120 110 95 100 320 289 45 80 66 92 72 36 335 313 300 301 295 299 322 326 353 348 347 351 327 328 344 3 4 351
102 99 91 114 125 130 140 133 132 128 127 123 120 125 132 143 141 132 138 147 152 161 172 140 121 109 103 71 79 26 311 295 309 349 336 345 344 347 340 336 336 343 342 342
19 77 97 109 124 134 140 130 131 128 130 132 127 124 128 137 134 133 142 150 178 178 148 133 144 134 101 138 127 80 334 313 311 337 341 331 331 336 340 343 337 334 334 334
313 351 21 102 120 140 134 125 131 133 136 139 138 138 142 149 155 155 168 177 180 157 142 141 145 142 87 46 53 6 341 349 344 339 331 337 343 339 332 334 337 338 347 346
293 311 332 15 107 118 137 133 137 140 142 142 143 147 151 158 169 176 178 177 169 156 155 142 140 144 135 91 47 0 341 336 332 330 332 329 334 334 337 340 346 2 8 5
284 289 302 306 335 142 141 148 140 149 151 152 153 152 151 157 154 155 166 172 171 169 162 155 151 146 138 127 82 31 2 350 343 340 335 322 321 324 328 338 337 350 7 13
279 285 290 297 291 291 288 228 185 168 168 176 178 179 177 175 173 172 301 322 2 183 180 176 164 162 171 161 111 360 351 349 350 340 332 330 331 330 346 360 19 16 11 11
279 278 284 288 286 284 268 234 217 222 250 232 232 231 210 215 237 243 262 316 306 214 218 206 201 200 249 250 273 309 332 344 346 348 349 337 344 12 19 21 15 6 6 6